DECAYED

STARLINK-2037, 47653 (Decayed)

Orbit data source: Space-Track

STARLINK-2037, 47653 was a payload satellite owned by SpaceX/Seattle (US) in LEO that was launched on Tue, 16 Feb 2021 UTC via an FALCON 9 launch vehicle from the Air Force Eastern Test Range (AFETR). Payload-class satellites include a variety of spacecraft equipped with specific instruments for various scientific and technological missions. These include communications satellites like Starlink; space stations such as the ISS; scientific satellites like the Hubble; Earth observation satellites from companies like Planet Labs, Umbra, and HawkEye 360; GPS; miniature CubeSats for education and research; and military/defense satellites.

Not visible in the next 10 days
Identifier
47653, 2021-012AK
Orbit
Decayed
Country
Flag of USUS
Related business
Manufacturer
SpaceX/Seattle
Mission
Decayed Commercial Communications
Bus & Motor
STARLINK, Unknown motor
Mass
260 kg wet, ~248 kg dry
Launch date (UTC)
2021-02-16 (5 years ago)
Launch vehicle
FALCON 9
Launch site
Air Force Eastern Test Range (AFETR)
Object type
Payload
Rocket body
Debris
Shape & HBR
Box + 1 Pan, 10.1 m
Radar Cross Section
13.562 m², Large (>1 m²)

Expand to show TLE details & history
Last TLE update: 1 year ago

TLE from 1 year ago
0 STARLINK-2037
1 47653U 21012AK  25021.10019128  .20203443  12469-4  48192-3 0  9994
2 47653  53.0253  76.7444 0003805 191.5791 260.7887 16.46125507217933
Epoch: 2025-01-21T02:24Z
TLE epoch observation values (Epoch: 2025-01-21T02:24:16.526Z)
Latitude
53.12169°
Longitude
13.83016°
Altitude
156.415 km
Speed
7.819 km/s
True Right ascension
11h 22m 26s
True Declination
52° 56' 28"
Sunlit
Object was in full shadow at epoch
Visualization orbit readout
Latitude
Unknown
Longitude
Unknown
Altitude
Unknown
Speed
Unknown
Apparent Right ascension
Unknown
Apparent Declination
Unknown
Sunlit
N/A
Visualization observer readout
Local Sidereal Time
21:34:28
Azimuth
Unknown
Elevation
Unknown
Doppler factor
Unknown
Orbital elements
Apogee altitude
152.334 km
Perigee altitude
147.366 km
Semi-major axis
6,527.987 km
Eccentricity
0.00038
Inclination
53.0253°
RAAN
76.7444°
Arg. of periapsis
191.5791°
True anomaly
260.74566°
Mean anomaly
260.7887°
Eccentric anomaly
260.76718°
Mean motion
4.11504 °/min
Orbital period
87.48 mins
BSTAR
0.00048192
Loading maneuver chart data...
Computing Atmospheric mass density...

Documentation

Showing up to 5 results
|